Year,Month,Day,Hour,Minute,Value (Times are PST for temperature in C)
2020,04,14,00,00,10.40
2020,04,14,00,01,10.40
2020,04,14,00,02,10.30
2020,04,14,00,03,10.30
2020,04,14,00,04,10.30
2020,04,14,00,05,10.20
2020,04,14,00,06,10.20
2020,04,14,00,07,10.10
2020,04,14,00,08,10.10
2020,04,14,00,09,10.10
2020,04,14,00,10,10.10
2020,04,14,00,11,10.00
2020,04,14,00,12,10.00
2020,04,14,00,13,10.00
2020,04,14,00,14,9.90
2020,04,14,00,15,9.90
2020,04,14,00,16,9.90
2020,04,14,00,17,9.90
2020,04,14,00,18,9.90
2020,04,14,00,19,9.90
2020,04,14,00,20,9.90
2020,04,14,00,21,9.90
2020,04,14,00,22,9.90
2020,04,14,00,23,9.90
2020,04,14,00,24,9.90
2020,04,14,00,25,9.90
2020,04,14,00,26,9.90
2020,04,14,00,27,9.90
2020,04,14,00,28,9.90
2020,04,14,00,29,9.90
2020,04,14,00,30,9.80
2020,04,14,00,31,9.80
2020,04,14,00,32,9.80
2020,04,14,00,33,9.80
2020,04,14,00,34,9.80
2020,04,14,00,35,9.90
2020,04,14,00,36,9.90
2020,04,14,00,37,9.90
2020,04,14,00,38,10.00
2020,04,14,00,39,10.00
2020,04,14,00,40,10.10
2020,04,14,00,41,10.20
2020,04,14,00,42,10.30
2020,04,14,00,43,10.30
2020,04,14,00,44,10.30
2020,04,14,00,45,10.30
2020,04,14,00,46,10.30
2020,04,14,00,47,10.30
2020,04,14,00,48,10.30
2020,04,14,00,49,10.30
2020,04,14,00,50,10.30
2020,04,14,00,51,10.30
2020,04,14,00,52,10.30
2020,04,14,00,53,10.30
2020,04,14,00,54,10.30
2020,04,14,00,55,10.30
2020,04,14,00,56,10.20
2020,04,14,00,57,10.20
2020,04,14,00,58,10.20
2020,04,14,00,59,10.10
2020,04,14,01,00,10.10
2020,04,14,01,01,10.10
2020,04,14,01,02,10.10
2020,04,14,01,03,10.00
2020,04,14,01,04,10.00
2020,04,14,01,05,10.00
2020,04,14,01,06,9.90
2020,04,14,01,07,9.90
2020,04,14,01,08,9.90
2020,04,14,01,09,10.00
2020,04,14,01,10,9.90
2020,04,14,01,11,9.90
2020,04,14,01,12,9.90
2020,04,14,01,13,9.90
2020,04,14,01,14,9.90
2020,04,14,01,15,9.90
2020,04,14,01,16,9.90
2020,04,14,01,17,9.90
2020,04,14,01,18,9.90
2020,04,14,01,19,9.90
2020,04,14,01,20,9.90
2020,04,14,01,21,9.90
2020,04,14,01,22,9.90
2020,04,14,01,23,9.90
2020,04,14,01,24,9.80
2020,04,14,01,25,9.80
2020,04,14,01,26,9.80
2020,04,14,01,27,9.80
2020,04,14,01,28,9.80
2020,04,14,01,29,9.80
2020,04,14,01,30,9.80
2020,04,14,01,31,9.80
2020,04,14,01,32,9.90
2020,04,14,01,33,10.00
2020,04,14,01,34,10.00
2020,04,14,01,35,10.10
2020,04,14,01,36,10.20
2020,04,14,01,37,10.20
2020,04,14,01,38,10.20
2020,04,14,01,39,10.30
2020,04,14,01,40,10.30
2020,04,14,01,41,10.30
2020,04,14,01,42,10.30
2020,04,14,01,43,10.30
2020,04,14,01,44,10.30
2020,04,14,01,45,10.30
2020,04,14,01,46,10.40
2020,04,14,01,47,10.40
2020,04,14,01,48,10.40
2020,04,14,01,49,10.50
2020,04,14,01,50,10.50
2020,04,14,01,51,10.50
2020,04,14,01,52,10.60
2020,04,14,01,53,10.60
2020,04,14,01,54,10.60
2020,04,14,01,55,10.60
2020,04,14,01,56,10.60
2020,04,14,01,57,10.70
2020,04,14,01,58,10.70
2020,04,14,01,59,10.70
2020,04,14,02,00,10.70
2020,04,14,02,01,10.80
2020,04,14,02,02,10.80
2020,04,14,02,03,10.80
2020,04,14,02,04,10.80
2020,04,14,02,05,10.80
2020,04,14,02,06,10.80
2020,04,14,02,07,10.80
2020,04,14,02,08,10.80
2020,04,14,02,09,10.80
2020,04,14,02,10,10.80
2020,04,14,02,11,10.80
2020,04,14,02,12,10.80
2020,04,14,02,13,10.70
2020,04,14,02,14,10.70
2020,04,14,02,15,10.70
2020,04,14,02,16,10.70
2020,04,14,02,17,10.60
2020,04,14,02,18,10.60
2020,04,14,02,19,10.60
2020,04,14,02,20,10.50
2020,04,14,02,21,10.50
2020,04,14,02,22,10.40
2020,04,14,02,23,10.40
2020,04,14,02,24,10.40
2020,04,14,02,25,10.30
2020,04,14,02,26,10.30
2020,04,14,02,27,10.30
2020,04,14,02,28,10.30
2020,04,14,02,29,10.20
2020,04,14,02,30,10.20
2020,04,14,02,31,10.20
2020,04,14,02,32,10.20
2020,04,14,02,33,10.20
2020,04,14,02,34,10.20
2020,04,14,02,35,10.20
2020,04,14,02,36,10.10
2020,04,14,02,37,10.10
2020,04,14,02,38,10.10
2020,04,14,02,39,10.10
2020,04,14,02,40,10.10
2020,04,14,02,41,10.10
2020,04,14,02,42,10.10
2020,04,14,02,43,10.10
2020,04,14,02,44,10.10
2020,04,14,02,45,10.10
2020,04,14,02,46,10.10
2020,04,14,02,47,10.10
2020,04,14,02,48,10.10
2020,04,14,02,49,10.10
2020,04,14,02,50,10.10
2020,04,14,02,51,10.10
2020,04,14,02,52,10.10
2020,04,14,02,53,10.10
2020,04,14,02,54,10.10
2020,04,14,02,55,10.10
2020,04,14,02,56,10.10
2020,04,14,02,57,10.10
2020,04,14,02,58,10.10
2020,04,14,02,59,10.10
2020,04,14,03,00,10.10
2020,04,14,03,01,10.10
2020,04,14,03,02,10.10
2020,04,14,03,03,10.20
2020,04,14,03,04,10.20
2020,04,14,03,05,10.20
2020,04,14,03,06,10.20
2020,04,14,03,07,10.20
2020,04,14,03,08,10.20
2020,04,14,03,09,10.20
2020,04,14,03,10,10.20
2020,04,14,03,11,10.20
2020,04,14,03,12,10.20
2020,04,14,03,13,10.20
2020,04,14,03,14,10.20
2020,04,14,03,15,10.10
2020,04,14,03,16,10.10
2020,04,14,03,17,10.10
2020,04,14,03,18,10.00
2020,04,14,03,19,10.00
2020,04,14,03,20,9.90
2020,04,14,03,21,9.90
2020,04,14,03,22,9.80
2020,04,14,03,23,9.80
2020,04,14,03,24,9.80
2020,04,14,03,25,9.70
2020,04,14,03,26,9.70
2020,04,14,03,27,9.60
2020,04,14,03,28,9.60
2020,04,14,03,29,9.60
2020,04,14,03,30,9.60
2020,04,14,03,31,9.60
2020,04,14,03,32,9.60
2020,04,14,03,33,9.50
2020,04,14,03,34,9.50
2020,04,14,03,35,9.50
2020,04,14,03,36,9.50
2020,04,14,03,37,9.50
2020,04,14,03,38,9.50
2020,04,14,03,39,9.40
2020,04,14,03,40,9.40
2020,04,14,03,41,9.40
2020,04,14,03,42,9.40
2020,04,14,03,43,9.40
2020,04,14,03,44,9.30
2020,04,14,03,45,9.30
2020,04,14,03,46,9.30
2020,04,14,03,47,9.30
2020,04,14,03,48,9.30
2020,04,14,03,49,9.30
2020,04,14,03,50,9.30
2020,04,14,03,51,9.30
2020,04,14,03,52,9.30
2020,04,14,03,53,9.30
2020,04,14,03,54,9.30
2020,04,14,03,55,9.30
2020,04,14,03,56,9.20
2020,04,14,03,57,9.20
2020,04,14,03,58,9.20
2020,04,14,03,59,9.20
2020,04,14,04,00,9.20
2020,04,14,04,01,9.20
2020,04,14,04,02,9.20
2020,04,14,04,03,9.20
2020,04,14,04,04,9.20
2020,04,14,04,05,9.20
2020,04,14,04,06,9.20
2020,04,14,04,07,9.20
2020,04,14,04,08,9.20
2020,04,14,04,09,9.30
2020,04,14,04,10,9.30
2020,04,14,04,11,9.30
2020,04,14,04,12,9.30
2020,04,14,04,13,9.30
2020,04,14,04,14,9.30
2020,04,14,04,15,9.30
2020,04,14,04,16,9.30
2020,04,14,04,17,9.30
2020,04,14,04,18,9.30
2020,04,14,04,19,9.30
2020,04,14,04,20,9.30
2020,04,14,04,21,9.30
2020,04,14,04,22,9.30
2020,04,14,04,23,9.20
2020,04,14,04,24,9.20
2020,04,14,04,25,9.20
2020,04,14,04,26,9.20
2020,04,14,04,27,9.20
2020,04,14,04,28,9.20
2020,04,14,04,29,9.20
2020,04,14,04,30,9.20
2020,04,14,04,31,9.10
2020,04,14,04,32,9.10
2020,04,14,04,33,9.10
2020,04,14,04,34,9.10
2020,04,14,04,35,9.10
2020,04,14,04,36,9.10
2020,04,14,04,37,9.20
2020,04,14,04,38,9.20
2020,04,14,04,39,9.20
2020,04,14,04,40,9.20
2020,04,14,04,41,9.20
2020,04,14,04,42,9.20
2020,04,14,04,43,9.20
2020,04,14,04,44,9.20
2020,04,14,04,45,9.30
2020,04,14,04,46,9.30
2020,04,14,04,47,9.30
2020,04,14,04,48,9.30
2020,04,14,04,49,9.30
2020,04,14,04,50,9.30
2020,04,14,04,51,9.30
2020,04,14,04,52,9.30
2020,04,14,04,53,9.40
2020,04,14,04,54,9.40
2020,04,14,04,55,9.40
2020,04,14,04,56,9.40
2020,04,14,04,57,9.40
2020,04,14,04,58,9.40
2020,04,14,04,59,9.40
2020,04,14,05,00,9.40
2020,04,14,05,01,9.40
2020,04,14,05,02,9.40
2020,04,14,05,03,9.40
2020,04,14,05,04,9.40
2020,04,14,05,05,9.40
2020,04,14,05,06,9.40
2020,04,14,05,07,9.40
2020,04,14,05,08,9.40
2020,04,14,05,09,9.40
2020,04,14,05,10,9.40
2020,04,14,05,11,9.40
2020,04,14,05,12,9.40
2020,04,14,05,13,9.40
2020,04,14,05,14,9.40
2020,04,14,05,15,9.30
2020,04,14,05,16,9.30
2020,04,14,05,17,9.30
2020,04,14,05,18,9.30
2020,04,14,05,19,9.30
2020,04,14,05,20,9.30
2020,04,14,05,21,9.30
2020,04,14,05,22,9.30
2020,04,14,05,23,9.20
2020,04,14,05,24,9.20
2020,04,14,05,25,9.20
2020,04,14,05,26,9.20
2020,04,14,05,27,9.20
2020,04,14,05,28,9.20
2020,04,14,05,29,9.10
2020,04,14,05,30,9.10
2020,04,14,05,31,9.10
2020,04,14,05,32,9.10
2020,04,14,05,33,9.00
2020,04,14,05,34,9.00
2020,04,14,05,35,9.00
2020,04,14,05,36,8.90
2020,04,14,05,37,8.90
2020,04,14,05,38,8.90
2020,04,14,05,39,8.90
2020,04,14,05,40,8.80
2020,04,14,05,41,8.80
2020,04,14,05,42,8.80
2020,04,14,05,43,8.80
2020,04,14,05,44,8.80
2020,04,14,05,45,8.80
2020,04,14,05,46,8.80
2020,04,14,05,47,8.70
2020,04,14,05,48,8.70
2020,04,14,05,49,8.70
2020,04,14,05,50,8.70
2020,04,14,05,51,8.70
2020,04,14,05,52,8.70
2020,04,14,05,53,8.70
2020,04,14,05,54,8.70
2020,04,14,05,55,8.70
2020,04,14,05,56,8.70
2020,04,14,05,57,8.70
2020,04,14,05,58,8.70
2020,04,14,05,59,8.70
2020,04,14,06,00,8.70
2020,04,14,06,01,8.70
2020,04,14,06,02,8.70
2020,04,14,06,03,8.70
2020,04,14,06,04,8.70
2020,04,14,06,05,8.70
2020,04,14,06,06,8.70
2020,04,14,06,07,8.70
2020,04,14,06,08,8.70
2020,04,14,06,09,8.70
2020,04,14,06,10,8.70
2020,04,14,06,11,8.70
2020,04,14,06,12,8.70
2020,04,14,06,13,8.70
2020,04,14,06,14,8.70
2020,04,14,06,15,8.70
2020,04,14,06,16,8.70
2020,04,14,06,17,8.70
2020,04,14,06,18,8.70
2020,04,14,06,19,8.70
2020,04,14,06,20,8.80
2020,04,14,06,21,8.80
2020,04,14,06,22,8.80
2020,04,14,06,23,8.80
2020,04,14,06,24,8.80
2020,04,14,06,25,8.80
2020,04,14,06,26,8.80
2020,04,14,06,27,8.70
2020,04,14,06,28,8.70
2020,04,14,06,29,8.70
2020,04,14,06,30,8.70
2020,04,14,06,31,8.70
2020,04,14,06,32,8.70
2020,04,14,06,33,8.70
2020,04,14,06,34,8.70
2020,04,14,06,35,8.70
2020,04,14,06,36,8.60
2020,04,14,06,37,8.60
2020,04,14,06,38,8.60
2020,04,14,06,39,8.60
2020,04,14,06,40,8.60
2020,04,14,06,41,8.50
2020,04,14,06,42,8.50
2020,04,14,06,43,8.50
2020,04,14,06,44,8.40
2020,04,14,06,45,8.40
2020,04,14,06,46,8.40
2020,04,14,06,47,8.40
2020,04,14,06,48,8.30
2020,04,14,06,49,8.30
2020,04,14,06,50,8.30
2020,04,14,06,51,8.30
2020,04,14,06,52,8.20
2020,04,14,06,53,8.20
2020,04,14,06,54,8.20
2020,04,14,06,55,8.20
2020,04,14,06,56,8.20
2020,04,14,06,57,8.20
2020,04,14,06,58,8.20
2020,04,14,06,59,8.20
2020,04,14,07,00,8.10
2020,04,14,07,01,8.10
2020,04,14,07,02,8.10
2020,04,14,07,03,8.10
2020,04,14,07,04,8.10
2020,04,14,07,05,8.10
2020,04,14,07,06,8.10
2020,04,14,07,07,8.10
2020,04,14,07,08,8.10
2020,04,14,07,09,8.10
2020,04,14,07,10,8.10
2020,04,14,07,11,8.10
2020,04,14,07,12,8.10
2020,04,14,07,13,8.10
2020,04,14,07,14,8.10
2020,04,14,07,15,8.10
2020,04,14,07,16,8.10
2020,04,14,07,17,8.10
2020,04,14,07,18,8.10
2020,04,14,07,19,8.10
2020,04,14,07,20,8.10
2020,04,14,07,21,8.10
2020,04,14,07,22,8.10
2020,04,14,07,23,8.10
2020,04,14,07,24,8.10
2020,04,14,07,25,8.20
2020,04,14,07,26,8.20
2020,04,14,07,27,8.20
2020,04,14,07,28,8.20
2020,04,14,07,29,8.20
2020,04,14,07,30,8.20
2020,04,14,07,31,8.20
2020,04,14,07,32,8.20
2020,04,14,07,33,8.30
2020,04,14,07,34,8.30
2020,04,14,07,35,8.30
2020,04,14,07,36,8.30
2020,04,14,07,37,8.30
2020,04,14,07,38,8.30
2020,04,14,07,39,8.30
2020,04,14,07,40,8.30
2020,04,14,07,41,8.30
2020,04,14,07,42,8.30
2020,04,14,07,43,8.30
2020,04,14,07,44,8.40
2020,04,14,07,45,8.40
2020,04,14,07,46,8.40
2020,04,14,07,47,8.40
2020,04,14,07,48,8.40
2020,04,14,07,49,8.40
2020,04,14,07,50,8.40
2020,04,14,07,51,8.40
2020,04,14,07,52,8.40
2020,04,14,07,53,8.40
2020,04,14,07,54,8.50
2020,04,14,07,55,8.50
2020,04,14,07,56,8.50
2020,04,14,07,57,8.60
2020,04,14,07,58,8.60
2020,04,14,07,59,8.60
2020,04,14,08,00,8.60
2020,04,14,08,01,8.70
2020,04,14,08,02,8.70
2020,04,14,08,03,8.70
2020,04,14,08,04,8.70
2020,04,14,08,05,8.70
2020,04,14,08,06,8.70
2020,04,14,08,07,8.70
2020,04,14,08,08,8.70
2020,04,14,08,09,8.80
2020,04,14,08,10,8.80
2020,04,14,08,11,8.80
2020,04,14,08,12,8.80
2020,04,14,08,13,8.80
2020,04,14,08,14,8.80
2020,04,14,08,15,8.80
2020,04,14,08,16,8.80
2020,04,14,08,17,8.80
2020,04,14,08,18,8.80
2020,04,14,08,19,8.80
2020,04,14,08,20,8.90
2020,04,14,08,21,8.90
2020,04,14,08,22,8.90
2020,04,14,08,23,9.00
2020,04,14,08,24,9.10
2020,04,14,08,25,9.20
2020,04,14,08,26,9.20
2020,04,14,08,27,9.30
2020,04,14,08,28,9.40
2020,04,14,08,29,9.50
2020,04,14,08,30,9.50
2020,04,14,08,31,9.60
2020,04,14,08,32,9.60
2020,04,14,08,33,9.70
2020,04,14,08,34,9.70
2020,04,14,08,35,9.80
2020,04,14,08,36,9.80
2020,04,14,08,37,9.90
2020,04,14,08,38,9.90
2020,04,14,08,39,9.90
2020,04,14,08,40,9.90
2020,04,14,08,41,10.00
2020,04,14,08,42,10.00
2020,04,14,08,43,10.10
2020,04,14,08,44,10.10
2020,04,14,08,45,10.10
2020,04,14,08,46,10.10
2020,04,14,08,47,10.10
2020,04,14,08,48,10.10
2020,04,14,08,49,10.10
2020,04,14,08,50,10.10
2020,04,14,08,51,10.20
2020,04,14,08,52,10.20
2020,04,14,08,53,10.10
2020,04,14,08,54,10.20
2020,04,14,08,55,10.20
2020,04,14,08,56,10.20
2020,04,14,08,57,10.20
2020,04,14,08,58,10.20
2020,04,14,08,59,10.20
2020,04,14,09,00,10.20
2020,04,14,09,01,10.20
2020,04,14,09,02,10.20
2020,04,14,09,03,10.20
2020,04,14,09,04,10.30
2020,04,14,09,05,10.30
2020,04,14,09,06,10.30
2020,04,14,09,07,10.30
2020,04,14,09,08,10.30
2020,04,14,09,09,10.30
2020,04,14,09,10,10.30
2020,04,14,09,11,10.40
2020,04,14,09,12,10.40
2020,04,14,09,13,10.40
2020,04,14,09,14,10.40
2020,04,14,09,15,10.40
2020,04,14,09,16,10.50
2020,04,14,09,17,10.60
2020,04,14,09,18,10.60
2020,04,14,09,19,10.60
2020,04,14,09,20,10.70
2020,04,14,09,21,10.80
2020,04,14,09,22,10.90
2020,04,14,09,23,10.90
2020,04,14,09,24,11.00
2020,04,14,09,25,11.00
2020,04,14,09,26,11.00
2020,04,14,09,27,10.90
2020,04,14,09,28,10.90
2020,04,14,09,29,10.90
2020,04,14,09,30,10.90
2020,04,14,09,31,10.80
2020,04,14,09,32,10.80
2020,04,14,09,33,10.80
2020,04,14,09,34,10.80
2020,04,14,09,35,10.80
2020,04,14,09,36,10.90
2020,04,14,09,37,10.90
2020,04,14,09,38,11.00
2020,04,14,09,39,11.00
2020,04,14,09,40,11.10
2020,04,14,09,41,11.20
2020,04,14,09,42,11.20
2020,04,14,09,43,11.20
2020,04,14,09,44,11.30
2020,04,14,09,45,11.30
2020,04,14,09,46,11.40
2020,04,14,09,47,11.40
2020,04,14,09,48,11.50
2020,04,14,09,49,11.60
2020,04,14,09,50,11.70
2020,04,14,09,51,11.80
2020,04,14,09,52,11.90
2020,04,14,09,53,11.90
2020,04,14,09,54,12.00
2020,04,14,09,55,12.00
2020,04,14,09,56,12.10
2020,04,14,09,57,12.10
2020,04,14,09,58,12.10
2020,04,14,09,59,12.10
2020,04,14,10,00,12.10
2020,04,14,10,01,12.10
2020,04,14,10,02,12.20
2020,04,14,10,03,12.20
2020,04,14,10,04,12.30
2020,04,14,10,05,12.40
2020,04,14,10,06,12.40
2020,04,14,10,07,12.50
2020,04,14,10,08,12.60
2020,04,14,10,09,12.60
2020,04,14,10,10,12.70
2020,04,14,10,11,12.80
2020,04,14,10,12,12.90
2020,04,14,10,13,12.90
2020,04,14,10,14,13.00
2020,04,14,10,15,13.10
2020,04,14,10,16,13.10
2020,04,14,10,17,13.20
2020,04,14,10,18,13.30
2020,04,14,10,19,13.40
2020,04,14,10,20,13.40
2020,04,14,10,21,13.40
2020,04,14,10,22,13.50
2020,04,14,10,23,13.50
2020,04,14,10,24,13.60
2020,04,14,10,25,13.60
2020,04,14,10,26,13.60
2020,04,14,10,27,13.50
2020,04,14,10,28,13.50
2020,04,14,10,29,13.50
2020,04,14,10,30,13.50
2020,04,14,10,31,13.50
2020,04,14,10,32,13.50
2020,04,14,10,33,13.60
2020,04,14,10,34,13.60
2020,04,14,10,35,13.60
2020,04,14,10,36,13.60
2020,04,14,10,37,13.70
2020,04,14,10,38,13.70
2020,04,14,10,39,13.70
2020,04,14,10,40,13.70
2020,04,14,10,41,13.70
2020,04,14,10,42,13.80
2020,04,14,10,43,13.80
2020,04,14,10,44,13.80
2020,04,14,10,45,13.80
2020,04,14,10,46,13.90
2020,04,14,10,47,13.90
2020,04,14,10,48,13.90
2020,04,14,10,49,13.90
2020,04,14,10,50,14.00
2020,04,14,10,51,14.00
2020,04,14,10,52,14.00
2020,04,14,10,53,13.90
2020,04,14,10,54,13.80
2020,04,14,10,55,13.80
2020,04,14,10,56,13.80
2020,04,14,10,57,13.70
2020,04,14,10,58,13.70
2020,04,14,10,59,13.70
2020,04,14,11,00,13.70
2020,04,14,11,01,13.60
2020,04,14,11,02,13.70
2020,04,14,11,03,13.60
2020,04,14,11,04,13.60
2020,04,14,11,05,13.50
2020,04,14,11,06,13.30
2020,04,14,11,07,13.20
2020,04,14,11,08,13.10
2020,04,14,11,09,13.00
2020,04,14,11,10,13.00
2020,04,14,11,11,13.00
2020,04,14,11,12,12.90
2020,04,14,11,13,13.00
2020,04,14,11,14,13.00
2020,04,14,11,15,13.10
2020,04,14,11,16,13.10
2020,04,14,11,17,13.10
2020,04,14,11,18,13.10
2020,04,14,11,19,13.10
2020,04,14,11,20,13.10
2020,04,14,11,21,13.10
2020,04,14,11,22,13.10
2020,04,14,11,23,13.10
2020,04,14,11,24,13.10
2020,04,14,11,25,13.20
2020,04,14,11,26,13.30
2020,04,14,11,27,13.30
2020,04,14,11,28,13.40
2020,04,14,11,29,13.50
2020,04,14,11,30,13.60
2020,04,14,11,31,13.60
2020,04,14,11,32,13.70
2020,04,14,11,33,13.70
2020,04,14,11,34,13.70
2020,04,14,11,35,13.70
2020,04,14,11,36,13.60
2020,04,14,11,37,13.60
2020,04,14,11,38,13.60
2020,04,14,11,39,13.60
2020,04,14,11,40,13.60
2020,04,14,11,41,13.70
2020,04,14,11,42,13.70
2020,04,14,11,43,13.80
2020,04,14,11,44,13.90
2020,04,14,11,45,13.90
2020,04,14,11,46,14.00
2020,04,14,11,47,14.00
2020,04,14,11,48,14.00
2020,04,14,11,49,14.10
2020,04,14,11,50,14.10
2020,04,14,11,51,14.10
2020,04,14,11,52,14.20
2020,04,14,11,53,14.20
2020,04,14,11,54,14.20
2020,04,14,11,55,14.10
2020,04,14,11,56,14.00
2020,04,14,11,57,13.90
2020,04,14,11,58,13.80
2020,04,14,11,59,13.70
2020,04,14,12,00,13.60
2020,04,14,12,01,13.60
2020,04,14,12,02,13.60
2020,04,14,12,03,13.60
2020,04,14,12,04,13.60
2020,04,14,12,05,13.70
2020,04,14,12,06,13.80
2020,04,14,12,07,13.80
2020,04,14,12,08,13.80
2020,04,14,12,09,13.90
2020,04,14,12,10,14.00
2020,04,14,12,11,14.00
2020,04,14,12,12,14.10
2020,04,14,12,13,14.10
2020,04,14,12,14,14.10
2020,04,14,12,15,14.10
2020,04,14,12,16,14.10
2020,04,14,12,17,14.20
2020,04,14,12,18,14.20
2020,04,14,12,19,14.20
2020,04,14,12,20,14.20
2020,04,14,12,21,14.30
2020,04,14,12,22,14.30
2020,04,14,12,23,14.30
2020,04,14,12,24,14.40
2020,04,14,12,25,14.40
2020,04,14,12,26,14.30
2020,04,14,12,27,14.30
2020,04,14,12,28,14.40
2020,04,14,12,29,14.40
2020,04,14,12,30,14.40
2020,04,14,12,31,14.50
2020,04,14,12,32,14.50
2020,04,14,12,33,14.40
2020,04,14,12,34,14.40
2020,04,14,12,35,14.30
2020,04,14,12,36,14.30
2020,04,14,12,37,14.30
2020,04,14,12,38,14.40
2020,04,14,12,39,14.40
2020,04,14,12,40,14.40
2020,04,14,12,41,14.40
2020,04,14,12,42,14.40
2020,04,14,12,43,14.40
2020,04,14,12,44,14.40
2020,04,14,12,45,14.40
2020,04,14,12,46,14.40
2020,04,14,12,47,14.40
2020,04,14,12,48,14.40
2020,04,14,12,49,14.40
2020,04,14,12,50,14.40
2020,04,14,12,51,14.40
2020,04,14,12,52,14.30
2020,04,14,12,53,14.30
2020,04,14,12,54,14.20
2020,04,14,12,55,14.20
2020,04,14,12,56,14.10
2020,04,14,12,57,14.10
2020,04,14,12,58,14.10
2020,04,14,12,59,14.10
2020,04,14,13,00,14.10
2020,04,14,13,01,14.10
2020,04,14,13,02,14.00
2020,04,14,13,03,14.00
2020,04,14,13,04,13.90
2020,04,14,13,05,13.80
2020,04,14,13,06,13.90
2020,04,14,13,07,13.90
2020,04,14,13,08,14.00
2020,04,14,13,09,14.10
2020,04,14,13,10,14.00
2020,04,14,13,11,14.00
2020,04,14,13,12,13.90
2020,04,14,13,13,13.90
2020,04,14,13,14,13.90
2020,04,14,13,15,14.00
2020,04,14,13,16,14.00
2020,04,14,13,17,14.00
2020,04,14,13,18,13.90
2020,04,14,13,19,13.80
2020,04,14,13,20,13.80
2020,04,14,13,21,13.80
2020,04,14,13,22,13.80
2020,04,14,13,23,13.80
2020,04,14,13,24,13.80
2020,04,14,13,25,13.90
2020,04,14,13,26,13.90
2020,04,14,13,27,14.00
2020,04,14,13,28,14.00
2020,04,14,13,29,14.10
2020,04,14,13,30,14.10
2020,04,14,13,31,14.10
2020,04,14,13,32,14.00
2020,04,14,13,33,13.90
2020,04,14,13,34,13.90
2020,04,14,13,35,13.90
2020,04,14,13,36,13.90
2020,04,14,13,37,13.80
2020,04,14,13,38,13.90
2020,04,14,13,39,13.90
2020,04,14,13,40,14.00
2020,04,14,13,41,14.00
2020,04,14,13,42,14.10
2020,04,14,13,43,14.10
2020,04,14,13,44,14.20
2020,04,14,13,45,14.20
2020,04,14,13,46,14.30
2020,04,14,13,47,14.30
2020,04,14,13,48,14.30
2020,04,14,13,49,14.20
2020,04,14,13,50,14.20
2020,04,14,13,51,14.30
2020,04,14,13,52,14.40
2020,04,14,13,53,14.40
2020,04,14,13,54,14.50
2020,04,14,13,55,14.60
2020,04,14,13,56,14.60
2020,04,14,13,57,14.60
2020,04,14,13,58,14.50
2020,04,14,13,59,14.30
2020,04,14,14,00,14.10
2020,04,14,14,01,14.00
2020,04,14,14,02,13.90
2020,04,14,14,03,13.90
2020,04,14,14,04,13.90
2020,04,14,14,05,14.00
2020,04,14,14,06,14.00
2020,04,14,14,07,14.10
2020,04,14,14,08,14.10
2020,04,14,14,09,14.10
2020,04,14,14,10,14.20
2020,04,14,14,11,14.20
2020,04,14,14,12,14.20
2020,04,14,14,13,14.20
2020,04,14,14,14,14.30
2020,04,14,14,15,14.40
2020,04,14,14,16,14.40
2020,04,14,14,17,14.50
2020,04,14,14,18,14.50
2020,04,14,14,19,14.50
2020,04,14,14,20,14.40
2020,04,14,14,21,14.30
2020,04,14,14,22,14.30
2020,04,14,14,23,14.30
2020,04,14,14,24,14.30
2020,04,14,14,25,14.30
2020,04,14,14,26,14.30
2020,04,14,14,27,14.20
2020,04,14,14,28,14.20
2020,04,14,14,29,14.20
2020,04,14,14,30,14.20
2020,04,14,14,31,14.10
2020,04,14,14,32,14.10
2020,04,14,14,33,14.10
2020,04,14,14,34,14.10
2020,04,14,14,35,14.20
2020,04,14,14,36,14.30
2020,04,14,14,37,14.40
2020,04,14,14,38,14.50
2020,04,14,14,39,14.60
2020,04,14,14,40,14.60
2020,04,14,14,41,14.60
2020,04,14,14,42,14.60
2020,04,14,14,43,14.70
2020,04,14,14,44,14.80
2020,04,14,14,45,14.90
2020,04,14,14,46,14.90
2020,04,14,14,47,15.00
2020,04,14,14,48,15.10
2020,04,14,14,49,15.10
2020,04,14,14,50,15.00
2020,04,14,14,51,15.00
2020,04,14,14,52,14.90
2020,04,14,14,53,14.90
2020,04,14,14,54,15.00
2020,04,14,14,55,15.00
2020,04,14,14,56,15.10
2020,04,14,14,57,15.10
2020,04,14,14,58,15.20
2020,04,14,14,59,15.20
2020,04,14,15,00,15.20
2020,04,14,15,01,15.20
2020,04,14,15,02,15.20
2020,04,14,15,03,15.30
2020,04,14,15,04,15.20
2020,04,14,15,05,15.20
2020,04,14,15,06,15.20
2020,04,14,15,07,15.20
2020,04,14,15,08,15.10
2020,04,14,15,09,15.10
2020,04,14,15,10,15.10
2020,04,14,15,11,15.00
2020,04,14,15,12,15.00
2020,04,14,15,13,15.10
2020,04,14,15,14,15.10
2020,04,14,15,15,15.10
2020,04,14,15,16,15.20
2020,04,14,15,17,15.30
2020,04,14,15,18,15.40
2020,04,14,15,19,15.40
2020,04,14,15,20,15.40
2020,04,14,15,21,15.40
2020,04,14,15,22,15.30
2020,04,14,15,23,15.30
2020,04,14,15,24,15.20
2020,04,14,15,25,15.30
2020,04,14,15,26,15.40
2020,04,14,15,27,15.50
2020,04,14,15,28,15.50
2020,04,14,15,29,15.60
2020,04,14,15,30,15.60
2020,04,14,15,31,15.60
2020,04,14,15,32,15.60
2020,04,14,15,33,15.60
2020,04,14,15,34,15.50
2020,04,14,15,35,15.40
2020,04,14,15,36,15.30
2020,04,14,15,37,15.30
2020,04,14,15,38,15.30
2020,04,14,15,39,15.40
2020,04,14,15,40,15.30
2020,04,14,15,41,15.30
2020,04,14,15,42,15.30
2020,04,14,15,43,15.30
2020,04,14,15,44,15.30
2020,04,14,15,45,15.40
2020,04,14,15,46,15.50
2020,04,14,15,47,15.60
2020,04,14,15,48,15.60
2020,04,14,15,49,15.50
2020,04,14,15,50,15.60
2020,04,14,15,51,15.60
2020,04,14,15,52,15.60
2020,04,14,15,53,15.60
2020,04,14,15,54,15.70
2020,04,14,15,55,15.70
2020,04,14,15,56,15.70
2020,04,14,15,57,15.70
2020,04,14,15,58,15.70
2020,04,14,15,59,15.60
2020,04,14,16,00,15.60
2020,04,14,16,01,15.50
2020,04,14,16,02,15.40
2020,04,14,16,03,15.40
2020,04,14,16,04,15.40
2020,04,14,16,05,15.40
2020,04,14,16,06,15.40
2020,04,14,16,07,15.40
2020,04,14,16,08,15.30
2020,04,14,16,09,15.30
2020,04,14,16,10,15.30
2020,04,14,16,11,15.30
2020,04,14,16,12,15.30
2020,04,14,16,13,15.20
2020,04,14,16,14,15.20
2020,04,14,16,15,15.20
2020,04,14,16,16,15.20
2020,04,14,16,17,15.30
2020,04,14,16,18,15.30
2020,04,14,16,19,15.40
2020,04,14,16,20,15.40
2020,04,14,16,21,15.40
2020,04,14,16,22,15.40
2020,04,14,16,23,15.40
2020,04,14,16,24,15.50
2020,04,14,16,25,15.60
2020,04,14,16,26,15.70
2020,04,14,16,27,15.70
2020,04,14,16,28,15.80
2020,04,14,16,29,15.80
2020,04,14,16,30,15.70
2020,04,14,16,31,15.80
2020,04,14,16,32,15.80
2020,04,14,16,33,15.80
2020,04,14,16,34,15.80
2020,04,14,16,35,15.90
2020,04,14,16,36,15.90
2020,04,14,16,37,15.90
2020,04,14,16,38,16.00
2020,04,14,16,39,16.00
2020,04,14,16,40,16.10
2020,04,14,16,41,16.10
2020,04,14,16,42,16.00
2020,04,14,16,43,15.90
2020,04,14,16,44,15.90
2020,04,14,16,45,15.80
2020,04,14,16,46,15.80
2020,04,14,16,47,15.80
2020,04,14,16,48,15.80
2020,04,14,16,49,15.80
2020,04,14,16,50,15.90
2020,04,14,16,51,15.90
2020,04,14,16,52,15.90
2020,04,14,16,53,15.90
2020,04,14,16,54,15.80
2020,04,14,16,55,15.80
2020,04,14,16,56,15.80
2020,04,14,16,57,15.80
2020,04,14,16,58,15.80
2020,04,14,16,59,15.80
2020,04,14,17,00,15.80
2020,04,14,17,01,15.80
2020,04,14,17,02,15.70
2020,04,14,17,03,15.70
2020,04,14,17,04,15.70
2020,04,14,17,05,15.70
2020,04,14,17,06,15.80
2020,04,14,17,07,15.80
2020,04,14,17,08,15.80
2020,04,14,17,09,15.80
2020,04,14,17,10,15.80
2020,04,14,17,11,15.90
2020,04,14,17,12,15.90
2020,04,14,17,13,16.00
2020,04,14,17,14,16.00
2020,04,14,17,15,15.90
2020,04,14,17,16,15.90
2020,04,14,17,17,15.80
2020,04,14,17,18,15.80
2020,04,14,17,19,15.80
2020,04,14,17,20,15.80
2020,04,14,17,21,15.80
2020,04,14,17,22,15.80
2020,04,14,17,23,15.80
2020,04,14,17,24,15.80
2020,04,14,17,25,15.80
2020,04,14,17,26,15.80
2020,04,14,17,27,15.70
2020,04,14,17,28,15.70
2020,04,14,17,29,15.70
2020,04,14,17,30,15.70
2020,04,14,17,31,15.70
2020,04,14,17,32,15.60
2020,04,14,17,33,15.50
2020,04,14,17,34,15.40
2020,04,14,17,35,15.30